[TLELIST] Archives

 

Current TLEs

January 24th 2007 PDT

HST 1 20580U 90037B 07023.44652672 .00000396 00000-0 17970-4 0 7884 2 20580 028.4682 053.9143 0003303 000.5336 359.5257 15.00179481718208 ISS (ZARYA) 1 25544U 98067A 07024.52434380 .00017153 00000-0 10347-3 0 5072 2 25544 051.6339 126.3688 0023063 127.0183 343.5393 15.77439425468082 CXO 1 25867U 99040B 07022.20833333 +.00000380 +00000-0 +00000-0 0 00268 2 25867 061.0145 092.4515 6039542 286.6120 356.3592 00.37808033001700 ____________________________________________________________________ These 2-Line ...Continue Reading

Current TLEs

January 23rd 2007 PDT

HST 1 20580U 90037B 07022.44860660 +.00000401 +00000-0 +18348-4 0 07912 2 20580 028.4681 060.4211 0003331 348.6962 011.3552 15.00178987718052 ISS (ZARYA) 1 25544U 98067A 07023.51024573 .00017087 00000-0 10328-3 0 5007 2 25544 051.6342 131.6051 0022876 123.0102 344.8782 15.77404214467923 CXO 1 25867U 99040B 07022.20833333 +.00000380 +00000-0 +00000-0 0 00268 2 25867 061.0145 092.4515 6039542 286.6120 356.3592 00.37808033001700 ____________________________________________________________________ These 2-Line ...Continue Reading

Current TLEs

January 22nd 2007 PDT

HST 1 20580U 90037B 07021.45068604 +.00000446 +00000-0 +21856-4 0 07928 2 20580 028.4678 066.9275 0003362 337.1547 022.8892 15.00178661717901 ISS (ZARYA) 1 25544U 98067A 07022.36130190 .00021130 00000-0 12683-3 0 4922 2 25544 051.6339 137.5340 0023036 118.8092 300.3048 15.77372668467743 CXO 1 25867U 99040B 07022.20833333 +.00000380 +00000-0 +00000-0 0 00268 2 25867 061.0145 092.4515 6039542 286.6120 356.3592 00.37808033001700 ____________________________________________________________________ These 2-Line ...Continue Reading

Current TLEs

January 21st 2007 PDT

HST 1 20580U 90037B 07019.52137260 .00000401 00000-0 18350-4 0 7856 2 20580 028.4673 079.5066 0003508 314.0082 046.0218 15.00177215717616 ISS (ZARYA) 1 25544U 98067A 07020.85501619 .00023417 00000-0 14042-3 0 4811 2 25544 051.6332 145.3088 0023123 113.6177 026.3957 15.77314733467503 CXO 1 25867U 99040B 07019.83333333 +.00000386 +00000-0 +00000-0 0 00253 2 25867 060.9979 092.5088 6034619 286.6202 033.0872 00.37803550001709 ____________________________________________________________________ These 2-Line ...Continue Reading

Current TLEs

January 20th 2007 PDT

HST 1 20580U 90037B 07019.52137260 .00000401 00000-0 18350-4 0 7856 2 20580 028.4673 079.5066 0003508 314.0082 046.0218 15.00177215717616 ISS (ZARYA) 1 25544U 98067A 07020.52286064 .00023733 00000-0 14232-3 0 4787 2 25544 051.6325 147.0212 0023258 112.4992 300.1636 15.77300086467451 CXO 1 25867U 99040B 07019.83333333 +.00000386 +00000-0 +00000-0 0 00253 2 25867 060.9979 092.5088 6034619 286.6202 033.0872 00.37803550001709 ____________________________________________________________________ These 2-Line ...Continue Reading

Current TLEs

January 19th 2007 PDT

HST 1 20580U 90037B 07017.52552975 +.00000356 +00000-0 +14796-4 0 07936 2 20580 028.4667 092.5185 0003682 291.2977 068.7222 15.00176061717319 ISS (ZARYA) 1 25544U 98067A 07019.51577071 .00024008 00000-0 14421-3 0 4736 2 25544 051.6320 152.2186 0023288 108.8482 341.5014 15.77252628467299 CXO 1 25867U 99040B 07016.91666667 +.00000382 +00000-0 +00000-0 0 00243 2 25867 060.9861 092.5703 6027903 286.6686 356.0120 00.37802642001689 ____________________________________________________________________ These 2-Line ...Continue Reading

Current TLEs

January 18th 2007 PDT

HST 1 20580U 90037B 07018.45692315 .00000340 00000-0 13574-4 0 7848 2 20580 028.4670 086.4458 0003633 301.2533 058.7704 15.00176390717458 ISS (ZARYA) 1 25544U 98067A 07018.50107321 .00022068 00000-0 13324-3 0 4657 2 25544 051.6325 157.4555 0023327 105.3011 339.6680 15.77196590467130 CXO 1 25867U 99040B 07016.91666667 +.00000382 +00000-0 +00000-0 0 00243 2 25867 060.9861 092.5703 6027903 286.6686 356.0120 00.37802642001689 ____________________________________________________________________ These 2-Line ...Continue Reading

Current TLEs

January 17th 2007 PDT

HST 1 20580U 90037B 07015.59621479 +.00000421 +00000-0 +19893-4 0 07911 2 20580 028.4665 105.0958 0003692 271.3882 088.6285 15.00175443717021 ISS (ZARYA) 1 25544U 98067A 07017.48481441 .00022369 00000-0 13529-3 0 4584 2 25544 051.6307 162.7017 0023352 101.5551 329.3580 15.77148206466974 CXO 1 25867U 99040B 07016.91666667 +.00000382 +00000-0 +00000-0 0 00243 2 25867 060.9861 092.5703 6027903 286.6686 356.0120 00.37802642001689 ____________________________________________________________________ These 2-Line ...Continue Reading

Current TLEs

January 16th 2007 PDT

HST 1 20580U 90037B 07014.66482136 +.00000435 +00000-0 +20998-4 0 07826 2 20580 028.4664 111.1674 0003718 261.7503 098.2669 15.00175043716887 ISS (ZARYA) 1 25544U 98067A 07016.47063255 .00015782 00000-0 96986-4 0 4525 2 25544 051.6319 167.9319 0023485 098.4731 330.3634 15.77087340466816 CXO 1 25867U 99040B 07014.29166667 +.00000378 +00000-0 +00000-0 0 00231 2 25867 060.9720 092.6124 6022796 286.7356 358.6109 00.37803718001670 ____________________________________________________________________ These 2-Line ...Continue Reading

Current TLEs

January 15th 2007 PDT

HST 1 20580U 90037B 07013.60037173 +.00000439 +00000-0 +21318-4 0 07827 2 20580 028.4663 118.1075 0003757 250.5879 109.4305 15.00174485716727 ISS (ZARYA) 1 25544U 98067A 07015.52122755 .00015582 00000-0 95939-4 0 4458 2 25544 051.6310 172.8300 0023553 095.1160 339.8621 15.77054875466668 CXO 1 25867U 99040B 07014.29166667 +.00000378 +00000-0 +00000-0 0 00231 2 25867 060.9720 092.6124 6022796 286.7356 358.6109 00.37803718001670 ____________________________________________________________________ These 2-Line ...Continue Reading
  • This mailing list is a public mailing list - anyone may join or leave, at any time.
  • This mailing list is announce-only.

International Space Station (ISS) / Hubble Space Telescope (HST) / Chandra X-Ray Observatory Orbital Data via EMAIL

Privacy Policy:

Private list